www.pogodaiklimat.ru

Погода и климат >> Архив погоды >> Франция >> Соленцара


ПОГОДА в Соленцаре

  • Прогноз погоды в Соленцаре
  • Монитор погоды в Соленцаре

АРХИВ ПОГОДЫ в Соленцаре

Время (UTC), дата Ветер
(напр.,м/с)
 
Видим.   Явления Облачность Т
(С)
Тd
(С)
f
(%)
Тe
(С)
Тes
(С)
Комфортность P
(гПа)
Po
(гПа)
Тmin
(С)
Tmax
(С)
R
(мм)
R24
(мм)
S
(см)
01 9.06 З 1 24 км 8/8
[]
+18.8 +15.3 80 +21 +21 комфорт 1021.0 1019.0
02 9.06 З 1 30 км н/о +18.7 +15.0 79 +21 +21 комфорт 1020.6 1018.6
03 9.06 З 1
{4}
35 км н/о +18.9 +14.2 74 +21 +21 комфорт 1020.0 1018.0
04 9.06 З 1-2
{2}
35 км н/о +18.4 +14.1 76 +20 +20 1020.1 1018.1
05 9.06 З 1-2
{2}
30 км н/о +19.4 +14.6 74 +22 +22 комфорт 1020.1 1018.1
06 9.06 С 2
{5}
19 км н/о +21.2 +16.8 76 +25 +25 комфорт 1019.0 1017.0 +18.2 +22.4
07 9.06 СВ 1-2
{2}
19 км н/о +23.4 +16.4 65 +28 +28 душно 1018.9 1016.9
08 9.06 В 1 19 км н/о +25.6 +16.2 56 +29 +29 душно 1018.9 1016.9
09 9.06 В 2
{5}
19 км н/о +24.6 +17.8 66 +29 +29 душно 1019.2 1017.2
10 9.06 СВ 1 10 км н/о +23.6 +19.7 79 +29 +29 душно 1019.3 1017.3
11 9.06 В 2 15 км н/о +23.3 +19.5 79 +30 +30 очень
душно
1018.4 1016.4
12 9.06 ЮВ 2
{5}
13 км н/о +22.9 +19.5 81 +29 +29 очень
душно
1017.8 1015.8
13 9.06 ЮВ 2 17 км н/о +24.2 +19.7 76 +29 +29 душно 1017.1 1015.1
14 9.06 ЮВ 2 17 км н/о +24.1 +19.4 75 +29 +29 душно 1016.5 1014.5
15 9.06 ЮВ 2
{5}
19 км н/о +24.1 +20.0 78 +30 +30 очень
душно
1016.3 1014.3
16 9.06 В 1-1
{3}
30 км н/о +23.8 +18.9 74 +29 +29 душно 1015.6 1013.6
17 9.06 В 1-2
{2}
19 км н/о +23.5 +18.6 74 +28 +28 душно 1015.3 1013.3
18 9.06 штиль 0
{3}
19 км н/о +22.5 +18.3 77 +28 +28 душно 1015.2 1013.2 +21.2 +25.8
19 9.06 СВ 1 19 км н/о +21.5 +18.9 85 +26 +26 душно 1015.1 1013.1
20 9.06 СЗ 1-1
{1}
19 км н/о +21.2 +18.6 85 +26 +26 душно 1015.2 1013.2
21 9.06 С 1
{3}
18 км 8/0
[]
+21.1 +18.7 86 +25 +25 комфорт 1015.2 1013.2
22 9.06 С 1 15 км н/о +20.9 +19.0 89 +26 +26 душно 1014.3 1012.3
23 9.06 СЗ 1 15 км н/о +20.7 +18.6 88 +26 +26 душно 1014.4 1012.4
00 10.06 З 1
{3}
17 км 10/0
[]
+20.5 +18.1 86 +26 +26 душно 1014.7 1012.7
01 10.06 Ю 1 9000 м 10/10
[]
+20.5 +19.2 92 +26 +26 душно 1013.9 1011.9 0.2
02 10.06 З 1 13 км 9/9 1500 м
[]
+20.3 +18.8 91 +25 +25 комфорт 1013.4 1011.4
03 10.06 З 1
{4}
17 км 10/0
[]
+20.1 +18.2 89 +24 +24 комфорт 1013.9 1011.9 0.2
04 10.06 ЮВ 1 29 км н/о +20.0 +16.8 82 +24 +24 комфорт 1012.2 1010.2
05 10.06 СЗ 1-2
{2}
30 км н/о +20.9 +16.9 78 +26 +26 душно 1012.0 1010.0
06 10.06 СЗ 1
{3}
40 км н/о +21.7 +17.5 77 +26 +26 душно 1012.0 1010.0 +19.6 +22.5
07 10.06 С 1 19 км н/о +24.5 +18.4 69 +29 +29 душно 1012.0 1010.0
08 10.06 ЮЗ 1-1
{2}
19 км н/о +26.3 +16.0 53 +30 +30 душно 1011.6 1009.7
09 10.06 В 2
{5}
19 км н/о +26.0 +18.7 64 +31 +31 очень
душно
1010.8 1008.9
10 10.06 ЮВ 2 19 км н/о +26.3 +18.2 61 +31 +31 душно 1010.1 1008.2
11 10.06 Ю 1 19 км н/о +26.1 +18.2 62 +31 +31 очень
душно
1009.3 1007.4
12 10.06 Ю 2
{6}
18 км н/о +26.3 +18.2 61 +31 +31 душно 1008.8 1006.9
13 10.06 ЮВ 2 17 км н/о +26.4 +19.3 65 +32 +32 очень
душно
1008.4 1006.5
14 10.06 ЮВ 2 17 км н/о +25.1 +19.2 70 +30 +30 душно 1008.0 1006.1
15 10.06 СВ 3
{7}
18 км н/о +24.9 +19.5 72 +30 +30 душно 1007.1 1005.2
16 10.06 СВ 3 15 км н/о +23.8 +19.7 78 +29 +29 душно 1007.3 1005.4
17 10.06 СВ 4 17 км н/о +23.8 +19.7 78 +29 +29 душно 1008.2 1006.2
18 10.06 СВ 2
{7}
17 км н/о +23.4 +19.3 78 +30 +30 очень
душно
1008.6 1006.6 +21.7 +27.6
19 10.06 СВ 1 13 км н/о +22.2 +19.0 82 +28 +28 душно 1008.6 1006.6
20 10.06 Ю 1-1
{1}
16 км н/о +21.0 +18.4 85 +27 +27 душно 1008.7 1006.7
21 10.06 ЮЗ 1
{3}
14 км н/о +20.7 +18.6 88 +26 +26 душно 1009.2 1007.2
22 10.06 З 1 13 км н/о +21.1 +19.2 89 +26 +26 душно 1009.5 1007.5
23 10.06 СЗ 1 13 км 8/8 240 м
[]
+20.6 +18.9 90 +26 +26 душно 1009.4 1007.4
00 11.06 Ю 1
{2}
12 км 10/10 200 м
[]
+20.8 +18.9 89 +27 +27 душно 1009.1 1007.1
01 11.06 ЮЗ 1 12 км 10/10 660 м
[]
+20.8 +18.9 89 +27 +27 душно 1009.1 1007.1
02 11.06 С 2 12 км 10/10 300 м
[]
+20.4 +18.2 87 +25 +25 комфорт 1009.4 1007.4
03 11.06 С 1
{4}
10 км 10/10 200 м
[]
+20.5 +18.6 89 +25 +25 комфорт 1009.6 1007.6
04 11.06 СЗ 1 12 км 10/10 1020 м
[]
+20.2 +18.0 87 +25 +25 комфорт 1009.4 1007.4
05 11.06 С 1-2
{2}
13 км н/о +20.8 +18.0 84 +26 +26 душно 1009.5 1007.5
06 11.06 С 1
{3}
12 км н/о +22.8 +17.7 73 +28 +28 душно 1009.3 1007.3 +20.2 +23.4
07 11.06 В 1 16 км н/о +24.0 +17.5 67 +28 +28 душно 1009.4 1007.4
08 11.06 В 2-2
{2}
12 км н/о +24.7 +18.4 68 +29 +29 душно 1009.3 1007.4
09 11.06 ЮВ 2
{5}
12 км н/о +24.0 +19.1 74 +29 +29 душно 1009.6 1007.6
10 11.06 В 2 13 км н/о +24.0 +19.3 75 +29 +29 душно 1010.0 1008.0
11 11.06 В 2 13 км н/о +23.9 +19.0 74 +29 +29 душно 1010.3 1008.3
12 11.06 В 2
{6}
12 км н/о +23.8 +19.1 75 +29 +29 душно 1010.0 1008.0
13 11.06 СВ 2 14 км 8/8 600 м
[]
+23.9 +18.5 72 +28 +32 душно 1009.4 1007.4
14 11.06 В 2 13 км 10/10 630 м
[]
+23.0 +18.7 77 +29 +29 очень
душно
1009.6 1007.6
15 11.06 СВ 1
{5}
14 км 10/10 300 м
[]
+22.5 +18.7 79 +28 +28 душно 1009.4 1007.4
16 11.06 СВ 1 14 км 10/10 330 м
[]
+21.9 +18.5 81 +27 +27 душно 1009.3 1007.3
17 11.06 СВ 1 12 км 10/10 500 м
[]
+21.8 +18.6 82 +27 +27 душно 1008.8 1006.8
18 11.06 СВ 1
{3}
13 км н/о +21.7 +18.5 82 +26 +26 душно 1009.3 1007.3 +21.6 +24.8
19 11.06 ЮВ 1 12 км н/о +21.4 +18.8 85 +26 +26 душно 1009.4 1007.4
20 11.06 Ю 1 12 км 10/10 500 м
[]
+21.3 +18.9 86 +26 +26 душно 1009.3 1007.3
21 11.06 Ю 1
{2}
11 км 10/10 300 м
[]
+21.3 +18.9 86 +26 +26 душно 1009.4 1007.4
22 11.06 ЮВ 1 12 км 10/10 600 м
[]
+21.2 +18.8 86 +26 +26 душно 1009.4 1007.4
23 11.06 З 1 12 км 10/10 600 м
[]
+21.3 +18.7 85 +26 +26 душно 1009.6 1007.6
00 12.06 С 1
{3}
12 км 10/10 300 м
[]
+21.3 +18.7 85 +26 +26 душно 1009.3 1007.3
01 12.06 СЗ 1 4800 м дымка 10/10 300 м
[]
+21.1 +19.0 88 +25 +25 комфорт 1009.6 1007.6
02 12.06 СЗ 1 10 км 10/10 500 м
[]
+20.8 +18.7 88 +27 +27 душно 1009.8 1007.8
03 12.06 С 1
{3}
10 км 10/10 300 м
[]
+20.6 +18.7 89 +26 +26 душно 1009.6 1007.6
04 12.06 СЗ 1 12 км 8/8 630 м
[]
+20.4 +18.2 87 +25 +25 комфорт 1009.8 1007.8
05 12.06 З 1 9000 м 9/9 660 м
[]
+20.7 +18.1 85 +26 +26 душно 1010.0 1008.0
06 12.06 В 1
{3}
15 км 10/10 600 м
[]
+21.9 +18.1 79 +27 +27 душно 1010.4 1008.4 +20.4 +22.0
07 12.06 В 1-2
{2}
16 км н/о +23.5 +18.6 74 +28 +28 душно 1010.8 1008.8
08 12.06 ЮВ 2 15 км н/о +24.1 +18.1 69 +28 +28 душно 1011.0 1009.0
09 12.06 ЮВ 4
{6}
15 км н/о +24.4 +17.1 64 +28 +28 душно 1011.4 1009.4
10 12.06 ЮВ 2 17 км 10/10 960 м
[]
+24.3 +17.3 65 +28 +28 душно 1011.9 1009.9
11 12.06 В 2 19 км 10/10 1020 м
[]
+24.1 +17.8 68 +28 +28 душно 1012.5 1010.5
12 12.06 В 2
{5}
18 км 10/10 1000 м
[]
+24.2 +17.7 67 +28 +28 душно 1012.7 1010.7
13 12.06 ЮВ 2 18 км н/о +24.7 +17.9 66 +29 +29 душно 1013.0 1011.0
14 12.06 ЮВ 2 19 км н/о +24.8 +17.0 62 +29 +29 душно 1012.9 1010.9
15 12.06 ЮВ 2
{6}
35 км н/о +24.8 +16.8 61 +28 +28 жарко 1013.2 1011.2
16 12.06 В 2-3
{3}
30 км н/о +23.9 +17.4 67 +28 +28 душно 1013.0 1011.0
17 12.06 ЮВ 1-2
{2}
17 км н/о +23.5 +16.8 66 +27 +27 душно 1013.0 1011.0
18 12.06 ЮВ 1
{4}
55 км н/о +22.6 +16.6 69 +27 +27 душно 1013.2 1011.2 +21.9 +25.3
19 12.06 Ю 1-2
{2}
50 км н/о +21.2 +16.4 74 +25 +25 комфорт 1013.6 1011.6
20 12.06 З 1-2
{2}
50 км н/о +19.9 +14.9 73 +23 +23 комфорт 1014.1 1012.1
21 12.06 З 1
{4}
45 км н/о +19.4 +14.9 75 +22 +22 комфорт 1014.4 1012.4
22 12.06 З 1-2
{2}
50 км н/о +18.8 +14.3 75 +21 +21 комфорт 1014.8 1012.8
23 12.06 З 2 50 км н/о +17.9 +13.8 77 +19 +19 1014.8 1012.8
00 13.06 З 2
{5}
55 км н/о +17.9 +13.4 75 +18 +18 1014.8 1012.8
01 13.06 З 2 55 км н/о +18.0 +13.5 75 +19 +19 1014.8 1012.8
02 13.06 З 1 45 км 9/9 540 м
[]
+18.3 +14.0 76 +20 +20 1014.8 1012.8
03 13.06 З 1
{3}
50 км 10/10 600 м
[]
+19.0 +14.0 73 +21 +21 комфорт 1014.9 1012.9
04 13.06 З 1 50 км 10/10 570 м
[]
+19.1 +14.1 73 +21 +21 комфорт 1015.3 1013.3
05 13.06 З 1 50 км 9/9 660 м
[]
+19.5 +15.2 76 +23 +23 комфорт 1015.7 1013.7
06 13.06 С 1
{3}
50 км н/о +21.8 +16.5 72 +26 +26 душно 1016.2 1014.2 +17.7 +22.6
07 13.06 В 2 19 км н/о +22.9 +16.9 69 +28 +28 душно 1016.5 1014.5
08 13.06 В 2 55 км н/о +23.0 +17.2 70 +28 +28 душно 1016.6 1014.6
09 13.06 ЮВ 2
{5}
50 км 8/8 600 м
[]
+23.8 +16.6 64 +27 +30 жарко 1016.8 1014.8
10 13.06 ЮВ 2 19 км н/о +23.3 +16.3 65 +28 +28 душно 1016.8 1014.8
11 13.06 ЮВ 2 40 км н/о +23.9 +17.2 66 +28 +28 душно 1016.8 1014.8
12 13.06 ЮВ 2-3
{3}
45 км н/о +24.2 +17.0 64 +28 +28 душно 1016.7 1014.7
13 13.06 В 2-3
{3}
19 км н/о +24.3 +17.1 64 +28 +28 душно 1016.7 1014.7
14 13.06 В 2 40 км н/о +24.1 +17.1 65 +28 +28 душно 1016.7 1014.7
15 13.06 ЮВ 2
{5}
40 км н/о +23.9 +16.4 63 +27 +27 жарко 1016.4 1014.4
16 13.06 В 1 55 км н/о +23.9 +15.9 61 +27 +27 жарко 1016.3 1014.3
17 13.06 В 1 50 км н/о +23.5 +16.0 63 +27 +27 душно 1016.1 1014.1
18 13.06 ЮВ 1
{3}
60 км н/о +22.4 +16.0 67 +27 +27 душно 1016.4 1014.4 +21.7 +24.8
19 13.06 В 1-1
{1}
19 км н/о +21.2 +15.7 71 +24 +24 комфорт 1016.4 1014.4
20 13.06 З 1-2
{2}
55 км н/о +20.4 +16.0 76 +24 +24 комфорт 1016.8 1014.8
21 13.06 З 1-2
{2}
50 км н/о +19.7 +16.0 79 +23 +23 комфорт 1017.0 1015.0
22 13.06 З 1-2
{2}
50 км н/о +19.2 +16.1 82 +22 +22 комфорт 1016.8 1014.8
23 13.06 З 1-2
{2}
45 км н/о +19.1 +15.6 80 +22 +22 комфорт 1016.3 1014.3
00 14.06 З 1
{4}
55 км н/о +19.2 +14.5 74 +22 +22 комфорт 1015.7 1013.7
01 14.06 З 2-2
{2}
55 км н/о +19.0 +13.6 71 +21 +21 комфорт 1015.6 1013.6
02 14.06 З 1-2
{3}
60 км н/о +18.6 +12.8 69 +20 +20 1015.5 1013.5
03 14.06 З 2-2
{2}
60 км н/о +18.1 +12.3 69 +19 +19 1015.5 1013.5
04 14.06 З 2-3
{3}
60 км н/о +18.2 +12.0 67 +19 +19 1015.5 1013.5
05 14.06 З 1 50 км н/о +19.6 +12.4 63 +22 +22 комфорт 1015.4 1013.4
06 14.06 З 1
{4}
50 км 9/0
[]
+21.9 +13.0 57 +25 +25 комфорт 1015.5 1013.5 +18.0 +22.4
07 14.06 Ю 1 50 км н/о +25.7 +13.2 46 +28 +28 жарко 1015.7 1013.7
08 14.06 ЮВ 1 40 км н/о +25.3 +15.9 56 +29 +29 душно 1015.8 1013.8
09 14.06 ЮВ 1
{4}
55 км н/о +27.1 +11.2 37 +28 +28 жарко 1015.4 1013.4
10 14.06 В 1 50 км н/о +26.3 +13.4 45 +28 +28 жарко 1015.3 1013.3
11 14.06 ЮВ 1 55 км н/о +26.7 +15.1 49 +29 +29 жарко 1014.9 1013.0
12 14.06 ЮВ 2
{5}
60 км н/о +27.2 +17.1 54 +31 +31 душно 1014.9 1013.0
13 14.06 ЮВ 2 55 км н/о +24.5 +16.5 61 +28 +28 душно 1015.0 1013.0
14 14.06 ЮВ 1 50 км н/о +24.4 +17.9 67 +29 +29 душно 1013.7 1011.7
15 14.06 Ю 2
{4}
40 км 9/0
[]
+23.6 +19.7 79 +29 +30 душно 1014.1 1012.1
16 14.06 ЮВ 2 19 км н/о +23.6 +19.9 80 +29 +29 душно 1013.1 1011.1
17 14.06 Ю 1 15 км 9/9
[]
+23.2 +20.3 84 +30 +31 очень
душно
1013.2 1011.2
18 14.06 Ю 1
{4}
16 км н/о +23.0 +20.1 84 +30 +30 очень
душно
1012.9 1010.9 +21.9 +28.1
19 14.06 штиль 0-1
{2}
11 км н/о +22.5 +20.4 88 +29 +29 очень
душно
1013.4 1011.4
20 14.06 ЮЗ 1 11 км н/о +21.7 +20.2 91 +27 +27 душно 1014.2 1012.2
21 14.06 ЮЗ 1
{3}
9000 м н/о +21.3 +20.1 93 +26 +26 душно 1013.8 1011.8
22 14.06 С 1 9000 м н/о +20.6 +19.1 91 +26 +26 душно 1013.9 1011.9 0.2
23 14.06 С 2 10 км 10/10 360 м
[]
+21.4 +20.2 93 +27 +27 душно 1014.2 1012.2
00 15.06 С 2
{6}
14 км 10/10 300 м
[]
+21.6 +19.3 87 +27 +27 душно 1013.9 1011.9 0.2
01 15.06 З 1 11 км н/о +20.5 +18.6 89 +25 +25 комфорт 1013.8 1011.8
02 15.06 З 1 13 км н/о +20.1 +18.2 89 +24 +24 комфорт 1014.2 1012.2
03 15.06 З 2
{5}
16 км 10/10 600 м
[]
+20.3 +17.9 86 +24 +24 комфорт 1014.7 1012.7
04 15.06 З 1 15 км 10/10 870 м
[]
+20.7 +18.3 86 +26 +26 душно 1015.1 1013.1
05 15.06 З 1 17 км 10/10 720 м
[]
+21.5 +18.5 83 +26 +26 душно 1015.4 1013.4
06 15.06 Ю 1
{3}
14 км 10/10 600 м
[]
+23.0 +19.0 78 +29 +29 очень
душно
1016.0 1014.0 +19.8 +23.1
07 15.06 В 1 17 км 10/10 1080 м
[]
+24.9 +17.9 65 +29 +29 душно 1016.3 1014.3
08 15.06 ЮВ 1 16 км 10/10 1110 м
[]
+25.7 +18.4 64 +30 +30 душно 1016.5 1014.5
09 15.06 ЮВ 2
{4}
14 км н/о +26.2 +17.8 60 +31 +31 очень
душно
1016.6 1014.6
10 15.06 ЮВ 2 17 км н/о +26.5 +17.8 59 +31 +31 душно 1016.3 1014.3
11 15.06 Ю 3 16 км н/о +26.1 +19.5 67 +32 +32 очень
душно
1016.4 1014.4
12 15.06 Ю 3
{8}
14 км н/о +25.8 +19.4 68 +31 +31 очень
душно
1016.3 1014.3
13 15.06 ЮВ 2 16 км н/о +25.8 +18.7 65 +31 +31 очень
душно
1016.5 1014.5
14 15.06 В 2 15 км н/о +26.0 +19.4 67 +31 +31 очень
душно
1016.5 1014.5
15 15.06 В 1
{5}
17 км н/о +26.0 +18.4 63 +31 +31 очень
душно
1016.1 1014.1
16 15.06 В 2 15 км н/о +25.3 +19.4 70 +31 +31 очень
душно
1015.6 1013.6
17 15.06 В 2-2
{3}
13 км н/о +23.7 +20.0 80 +29 +29 душно 1015.8 1013.8
18 15.06 В 1
{5}
17 км н/о +22.5 +18.9 80 +28 +28 душно 1015.9 1013.9 +22.5 +26.7
19 15.06 В 1 30 км 10/10 480 м
[]
+22.2 +18.0 77 +27 +27 душно 1016.0 1014.0
20 15.06 В 1 19 км 10/10 700 м
[]
+21.9 +18.1 79 +27 +27 душно 1016.3 1014.3
21 15.06 В 1 19 км 8/8 500 м
[]
+21.1 +18.1 83 +25 +25 комфорт 1016.4 1014.4
22 15.06 В 1 19 км 10/10 570 м
[]
+21.8 +18.4 81 +27 +27 душно 1016.9 1014.9
23 15.06 СВ 1 19 км 10/10 480 м
[]
+21.6 +18.2 81 +26 +26 душно 1016.7 1014.7
00 16.06 штиль 0 19 км 10/10 540 м
[]
+21.3 +17.7 80 +25 +25 комфорт 1016.4 1014.4

 

Местоположение метеостанции Соленцара (Франция): широта 41.92 долгота 9.40 высота над уровнем моря 22 м.

В архиве по умолчанию представлена погода в Соленцаре за последнюю неделю. Архивные данные за месяц целиком и за предыдущие месяцы, начиная с января 2011 года, Вы можете получить, выбрав интересующий диапазон дат из раскрывающегося списка и нажав кнопку "Ввод!".


*Определитесь, кто Вы:
робот инопланетянин человек

Внимание! Время в таблицах - всемирное. Для получения местного времени необходимо прибавить поправку, которая равна 1 ч.

Смотрите также архив погоды в соседних городах и на ближайших метеорологических станциях:

Погода в Алистро (Франция) (40 км)
Погода в Аяччо (Франция) (50 км)
Погода в Фигари (Франция) (53 км)
Погода на Мысе Пертюзато (Франция) (64 км)
Погода в Ла Парате (Франция) (65 км)
Погода в Бастии (Франция) (70 км)
Погода в Кальви (Франция) (84 км)
Погода в Л’Иль-Русе (Франция) (88 км)
Погода на Мысе Сагро (Франция) (98 км)
Погода в Ольвии (Италия) (114 км)

Пояснения к столбцам:

Ветер - указаны скорость ветра в м/с - средняя за 10 мин, порывы в срок и между сроками (в фигурных скобках) и направление, откуда дует ветер: С - северный, СВ - северо-восточный, В - восточный, ЮВ - юго-восточный, Ю - южный, ЮЗ - юго-западный, З - западный, СЗ - северо-западный.
Видимость - горизонтальная дальность видимости в метрах или километрах. При видимости от 1 до 10 км при отсутствии осадков обычно наблюдается дымка, при ухудшении видимости до 1 км и менее - туман. В сухую погоду видимость может ухудшаться дымом, пылью или мглою.
Явления - указаны атмосферные явления, наблюдавшиеся в срок или в последний час перед сроком; фигурными скобками обозначены явления, наблюдавшиеся между сроками (за 1-3 часа до срока); квадратными скобками обозначены град или гололедные отложения с указанием их диаметра в мм.
Облачность - указаны через наклонную черту общая и нижняя облачность в баллах и высота нижней границы облаков в метрах; квадратными скобками обозначены формы облаков: Ci - перистые, Cs - перисто-слоистые, Cc - перисто-кучевые, Ac - высококучевые, As - высокослоистые, Sc - слоисто-кучевые, Ns - слоисто-дождевые, Cu - кучевые, Cb - кучево-дождевые. Подробнее классификацию облаков см. в Атласе облаков (PDF).
T - Температура воздуха - температура, измеренная на высоте 2 м над землей.
Td - Температура точки росы - температура, при понижении до которой содержащийся в воздухе водяной пар достигнет насыщения.
f - Относительная влажность воздуха - влажноcть воздуха, измеренная на высоте 2 м над землей.
Te - Эффективная температура - температура, которую ощущает одетый по сезону человек в тени. Характеристика душности погоды. При расчете учитывается влияние влажности воздуха и скорости ветра на теплоощущения человека.
Tes - Эффективная температура на солнце - температура, которую ощущает человек, с поправкой на солнечный нагрев. Характеристика знойности погоды. Зависит от высоты солнца над горизонтом, облачности и скорости ветра. Ночью, в пасмурную погоду, а также при ветре 12 м/с и более поправка равна нулю.
P - Атмосферное давление - приведенное к уровню моря атмосферное давление.
Po - Атмосферное давление - измеренное на уровне метеостанции атмосферное давление.
Tmin - Минимальная температура - минимум температуры воздуха на высоте 2 м над землей.
Tmax - Максимальная температура - максимум температуры воздуха на высоте 2 м над землей.
R - Количество осадков - Количество выпавших осадков за период времени, мм. При наведении курсора мыши на число - период времени, за который выпало указанное количество осадков.
R24 - Количество осадков - Количество выпавших осадков за 24 часа, мм.
S - Снежный покров - Высота снежного покрова, см. При наведении курсора мыши на число - состояние снежного покрова и степень покрытия местности в баллах.